CW1020 Weather Reports


Display with metric or nautical units.
time (UTC)temp
F
wind
direction
speed
MPH
gust
MPH
rain 1hr
in
rain 24hr
in
rain mn
in
humidity
%
barometer
mb
20260902053003 61 0 0.0 0.0 0.00 0.00 0.00 50 1019.0
20260902052503 61 182 0.0 1.0 0.00 0.00 0.00 51 1019.1
20260902052003 61 182 1.0 1.0 0.00 0.00 0.00 51 1019.1
20260902051003 61 185 1.0 3.0 0.00 0.00 0.00 50 1019.2
20260902050504 61 162 1.0 4.0 0.00 0.00 0.00 50 1019.2
20260902050006 61 172 1.0 2.0 0.00 0.00 0.00 50 1019.1
20260902045503 61 187 1.0 2.0 0.00 0.00 0.00 50 1019.1
20260902044503 62 0 0.0 0.0 0.00 0.00 0.00 49 1019.1
20260902044002 62 190 0.0 1.0 0.00 0.00 0.00 49 1019.1
20260902043503 62 182 0.0 1.0 0.00 0.00 0.00 49 1019.0
20260902043004 62 0 0.0 0.0 0.00 0.00 0.00 48 1018.9
20260902042503 62 181 0.0 1.0 0.00 0.00 0.00 48 1018.9
20260902042003 62 0 0.0 0.0 0.00 0.00 0.00 48 1018.8
20260902041504 62 186 0.0 1.0 0.00 0.00 0.00 48 1018.7
20260902041003 62 187 0.0 2.0 0.00 0.00 0.00 48 1018.6
20260902040503 62 0 0.0 0.0 0.00 0.00 0.00 48 1018.6
20260902040003 62 0 0.0 0.0 0.00 0.00 0.00 48 1018.4
20260902035503 62 0 0.0 0.0 0.00 0.00 0.00 48 1018.4
20260902035003 63 164 1.0 1.0 0.00 0.00 0.00 48 1018.3
20260902034503 63 161 2.0 3.0 0.00 0.00 0.00 48 1018.2
20260902034003 63 181 2.0 8.0 0.00 0.00 0.00 47 1018.2
20260902032003 64 136 1.0 2.0 0.00 0.00 0.00 47 1017.9
20260902031503 64 135 1.0 2.0 0.00 0.00 0.00 48 1017.9
20260902031002 64 139 0.0 2.0 0.00 0.00 0.00 47 1017.9
20260902030003 65 166 1.0 2.0 0.00 0.00 0.00 45 1017.6
20260902025503 65 185 2.0 3.0 0.00 0.00 0.00 44 1017.6
20260902025004 65 186 3.0 4.0 0.00 0.00 0.00 42 1017.5
20260902024503 66 187 3.0 4.0 0.00 0.00 0.00 41 1017.4
20260902024003 66 192 4.0 4.0 0.00 0.00 0.00 41 1017.4
20260902023003 66 229 3.0 8.0 0.00 0.00 0.00 41 1017.3
20260902022004 67 240 4.0 5.0 0.00 0.00 0.00 41 1017.2
20260902021503 67 244 5.0 5.0 0.00 0.00 0.00 40 1017.2
20260902021003 67 248 5.0 7.0 0.00 0.00 0.00 40 1017.2
20260902020503 67 241 6.0 9.0 0.00 0.00 0.00 41 1017.1
20260902020004 68 239 6.0 9.0 0.00 0.00 0.00 40 1017.4
20260902015503 68 243 6.0 9.0 0.00 0.00 0.00 38 1017.5
20260902015003 69 243 5.0 8.0 0.00 0.00 0.00 38 1017.4
20260902014503 69 243 4.0 9.0 0.00 0.00 0.00 36 1017.4
20260902014003 70 251 4.0 8.0 0.00 0.00 0.00 35 1017.4
20260902013504 71 247 3.0 9.0 0.00 0.00 0.00 32 1017.3
20260902013004 71 250 2.0 8.0 0.00 0.00 0.00 30 1017.3
20260902012503 71 255 4.0 4.0 0.00 0.00 0.00 30 1017.2
20260902012003 72 243 6.0 8.0 0.00 0.00 0.00 30 1017.1
20260902011504 72 242 6.0 10.0 0.00 0.00 0.00 30 1017.1
20260902011003 72 238 5.0 10.0 0.00 0.00 0.00 29 1017.2
20260902010004 73 243 6.0 13.0 0.00 0.00 0.00 24 1017.1
20260902005504 73 235 7.0 12.0 0.00 0.00 0.00 25 1017.0
20260902005003 73 240 7.0 14.0 0.00 0.00 0.00 24 1017.0
20260902004503 73 232 8.0 10.0 0.00 0.00 0.00 24 1017.1
20260902004003 74 231 8.0 14.0 0.00 0.00 0.00 24 1017.0
20260902003003 74 230 9.0 13.0 0.00 0.00 0.00 25 1016.9
20260902002503 74 233 10.0 14.0 0.00 0.00 0.00 25 1016.9
20260902002004 74 227 10.0 15.0 0.00 0.00 0.00 24 1016.8
20260902001503 75 237 8.0 15.0 0.00 0.00 0.00 24 1016.8
20260902001003 75 237 7.0 15.0 0.00 0.00 0.00 23 1016.8
20260902000503 75 215 8.0 10.0 0.00 0.00 0.00 25 1016.9
20260902000004 75 223 9.0 15.0 0.00 0.00 0.00 24 1016.9
20260901235504 75 228 9.0 12.0 0.00 0.00 0.00 23 1017.2
20260901235003 76 233 9.0 19.0 0.00 0.00 0.00 23 1017.2
20260901234503 75 228 9.0 12.0 0.00 0.00 0.00 24 1017.3
20260901233504 76 228 7.0 14.0 0.00 0.00 0.00 23 1017.3
20260901233003 76 226 7.0 13.0 0.00 0.00 0.00 23 1017.3
20260901232503 77 228 6.0 12.0 0.00 0.00 0.00 24 1017.4
20260901231503 77 224 7.0 9.0 0.00 0.00 0.00 24 1017.4
20260901231003 77 225 7.0 14.0 0.00 0.00 0.00 24 1017.5
20260901230004 77 222 5.0 10.0 0.00 0.00 0.00 26 1017.6
20260901225503 77 209 6.0 7.0 0.00 0.00 0.00 25 1017.6
20260901224504 77 238 5.0 15.0 0.00 0.00 0.00 25 1017.6
20260901224003 76 231 5.0 9.0 0.00 0.00 0.00 23 1017.7
20260901222503 75 223 7.0 14.0 0.00 0.00 0.00 23 1017.6
20260901222003 75 212 7.0 11.0 0.00 0.00 0.00 24 1017.6
20260901221004 75 203 10.0 12.0 0.00 0.00 0.00 25 1017.6
20260901220503 75 233 10.0 16.0 0.00 0.00 0.00 23 1017.5
20260901220003 75 219 11.0 16.0 0.00 0.00 0.00 23 1017.5
20260901215503 75 218 11.0 16.0 0.00 0.00 0.00 24 1017.5
20260901214504 75 221 11.0 19.0 0.00 0.00 0.00 23 1017.5
20260901214003 75 224 11.0 16.0 0.00 0.00 0.00 22 1017.5
20260901213503 74 214 12.0 16.0 0.00 0.00 0.00 20 1017.4
20260901213004 74 212 13.0 21.0 0.00 0.00 0.00 21 1017.4
20260901212002 74 220 13.0 21.0 0.00 0.00 0.00 22 1017.5
20260901211502 74 227 14.0 18.0 0.00 0.00 0.00 25 1017.6
20260901211002 73 228 15.0 22.0 0.00 0.00 0.00 27 1017.6
20260901210002 73 231 16.0 19.0 0.00 0.00 0.00 29 1017.6
20260901205502 72 231 16.0 24.0 0.00 0.00 0.00 30 1017.7
20260901205002 72 232 16.0 24.0 0.00 0.00 0.00 32 1017.7
20260901203503 73 211 14.0 19.0 0.00 0.00 0.00 31 1017.7
20260901203002 72 232 14.0 21.0 0.00 0.00 0.00 30 1017.7
20260901202502 72 236 13.0 22.0 0.00 0.00 0.00 29 1017.7
20260901202002 73 227 13.0 21.0 0.00 0.00 0.00 29 1017.7
20260901201502 73 232 12.0 21.0 0.00 0.00 0.00 28 1017.7
20260901201002 73 224 12.0 19.0 0.00 0.00 0.00 26 1017.8
20260901200503 73 223 12.0 16.0 0.00 0.00 0.00 26 1017.9
20260901200002 73 216 13.0 19.0 0.00 0.00 0.00 24 1017.8
20260901195002 73 236 14.0 23.0 0.00 0.00 0.00 24 1018.1
20260901194502 74 237 12.0 25.0 0.00 0.00 0.00 23 1018.0
20260901194003 76 228 9.0 22.0 0.00 0.00 0.00 19 1018.1
20260901193502 77 223 9.0 12.0 0.00 0.00 0.00 19 1018.2
20260901193002 77 196 8.0 13.0 0.00 0.00 0.00 15 1018.3
20260901192502 77 165 8.0 18.0 0.00 0.00 0.00 15 1018.3
20260901192003 77 183 7.0 22.0 0.00 0.00 0.00 15 1018.2
20260901191502 77 240 6.0 16.0 0.00 0.00 0.00 19 1018.2
20260901191002 77 203 6.0 13.0 0.00 0.00 0.00 12 1018.1
20260901190502 78 203 4.0 12.0 0.00 0.00 0.00 13 1018.3
20260901190003 77 160 7.0 13.0 0.00 0.00 0.00 10 1018.1
20260901185502 77 189 8.0 12.0 0.00 0.00 0.00 11 1018.2
20260901185002 78 204 7.0 13.0 0.00 0.00 0.00 19 1018.4
20260901184503 78 167 7.0 19.0 0.00 0.00 0.00 9 1018.2
20260901183502 78 192 11.0 18.0 0.00 0.00 0.00 11 1018.1
20260901183002 78 183 9.0 19.0 0.00 0.00 0.00 10 1018.1
20260901182502 77 195 7.0 19.0 0.00 0.00 0.00 11 1017.9
20260901182003 77 165 9.0 10.0 0.00 0.00 0.00 11 1018.1
20260901181002 77 177 10.0 19.0 0.00 0.00 0.00 11 1018.0
20260901180502 77 177 10.0 13.0 0.00 0.00 0.00 11 1017.9
20260901180002 76 173 9.0 18.0 0.00 0.00 0.00 11 1017.8
20260901175502 76 176 9.0 15.0 0.00 0.00 0.00 11 1017.8
20260901175003 76 152 9.0 17.0 0.00 0.00 0.00 11 1017.8
20260901174503 76 162 7.0 21.0 0.00 0.00 0.00 12 1017.9
20260901174002 76 168 7.0 13.0 0.00 0.00 0.00 12 1017.7
20260901173502 75 167 8.0 12.0 0.00 0.00 0.00 13 1017.8
20260901173003 74 163 6.0 16.0 0.00 0.00 0.00 14 1017.8
20260901172503 72 148 4.0 14.0 0.00 0.00 0.00 16 1017.7
20260901172002 70 53 4.0 9.0 0.00 0.00 0.00 23 1017.8
20260901171502 68 222 5.0 13.0 0.00 0.00 0.00 21 1017.7
20260901171002 68 268 4.0 9.0 0.00 0.00 0.00 27 1017.8
20260901170502 67 256 5.0 9.0 0.00 0.00 0.00 26 1017.8
20260901170003 67 251 4.0 13.0 0.00 0.00 0.00 28 1018.0
20260901165502 66 252 5.0 11.0 0.00 0.00 0.00 28 1018.0
20260901165002 66 252 4.0 12.0 0.00 0.00 0.00 28 1018.0
20260901164502 66 252 4.0 9.0 0.00 0.00 0.00 28 1017.9
20260901163502 65 244 4.0 11.0 0.00 0.00 0.00 31 1018.0
20260901163003 65 244 3.0 10.0 0.00 0.00 0.00 31 1017.9
20260901162502 64 257 4.0 7.0 0.00 0.00 0.00 32 1017.9
20260901162002 64 247 4.0 8.0 0.00 0.00 0.00 32 1018.0
20260901161502 64 253 3.0 7.0 0.00 0.00 0.00 33 1018.0
20260901161003 63 246 2.0 8.0 0.00 0.00 0.00 33 1018.0
20260901160502 63 250 2.0 5.0 0.00 0.00 0.00 34 1018.1
20260901155503 62 265 1.0 4.0 0.00 0.00 0.00 36 1018.1
20260901154003 59 269 0.0 1.0 0.00 0.00 0.00 37 1018.2
20260901153502 58 260 0.0 2.0 0.00 0.00 0.00 39 1018.3
20260901153002 57 250 1.0 3.0 0.00 0.00 0.00 41 1018.3
20260901152502 56 242 1.0 2.0 0.00 0.00 0.00 44 1018.3
20260901152003 54 272 0.0 2.0 0.00 0.00 0.00 45 1018.3
20260901151002 52 1 0.0 3.0 0.00 0.00 0.00 49 1017.9
20260901150503 52 54 0.0 1.0 0.00 0.00 0.00 50 1018.0
20260901145002 50 0 0.0 0.0 0.00 0.00 0.00 51 1017.9
20260901144503 49 0 0.0 0.0 0.00 0.00 0.00 51 1017.8
20260901144002 49 60 0.0 2.0 0.00 0.00 0.00 52 1017.8
20260901143003 48 0 0.0 0.0 0.00 0.00 0.00 51 1017.8
20260901142502 48 0 0.0 0.0 0.00 0.00 0.00 51 1017.7
20260901142002 48 0 0.0 0.0 0.00 0.00 0.00 50 1017.8
20260901141002 48 32 1.0 2.0 0.00 0.00 0.00 49 1017.6
20260901140502 48 0 0.0 0.0 0.00 0.00 0.00 49 1017.4
20260901135502 48 31 0.0 2.0 0.00 0.00 0.00 50 1017.7
20260901135002 48 0 0.0 0.0 0.00 0.00 0.00 49 1017.6
20260901134503 48 67 0.0 1.0 0.00 0.00 0.00 50 1017.5
20260901134003 48 77 0.0 1.0 0.00 0.00 0.00 50 1017.3
20260901133003 48 76 1.0 1.0 0.00 0.00 0.00 49 1017.3
20260901132502 48 80 1.0 2.0 0.00 0.00 0.00 49 1017.3
20260901131503 48 69 0.0 1.0 0.00 0.00 0.00 52 1017.2
20260901131002 48 0 0.0 0.0 0.00 0.00 0.00 52 1017.2
20260901130503 48 0 0.0 0.0 0.00 0.00 0.00 52 1017.2
20260901130003 48 0 0.0 0.0 0.00 0.00 0.00 52 1017.2
20260901125502 48 0 0.0 0.0 0.00 0.00 0.00 51 1017.3
20260901125003 48 0 0.0 0.0 0.00 0.00 0.00 51 1017.3
20260901124503 49 0 0.0 0.0 0.00 0.00 0.00 52 1017.3
20260901124003 49 67 0.0 1.0 0.00 0.00 0.00 52 1017.4
20260901123502 49 0 0.0 0.0 0.00 0.00 0.00 52 1017.4
20260901123002 49 0 0.0 0.0 0.00 0.00 0.00 51 1017.4
20260901122003 49 30 0.0 1.0 0.00 0.00 0.00 52 1017.3
20260901121502 49 33 0.0 2.0 0.00 0.00 0.00 52 1017.3
20260901121002 49 0 0.0 0.0 0.00 0.00 0.00 52 1017.4
20260901120503 49 34 0.0 1.0 0.00 0.00 0.00 52 1017.3
20260901120003 49 18 0.0 1.0 0.00 0.00 0.00 52 1017.2
20260901115503 50 0 0.0 0.0 0.00 0.00 0.00 52 1017.2
20260901115002 50 28 0.0 1.0 0.00 0.00 0.00 52 1017.3
20260901114502 50 0 0.0 0.0 0.00 0.00 0.00 52 1017.2
20260901114003 50 55 0.0 1.0 0.00 0.00 0.00 52 1017.2
20260901113502 50 102 0.0 1.0 0.00 0.00 0.00 52 1017.1
20260901113003 51 71 0.0 2.0 0.00 0.00 0.00 51 1017.2
20260901112002 51 0 0.0 0.0 0.00 0.00 0.00 52 1017.0
20260901111003 52 37 0.0 1.0 0.00 0.00 0.00 51 1017.1
20260901110503 52 34 0.0 1.0 0.00 0.00 0.00 51 1017.1
20260901110003 52 33 0.0 1.0 0.00 0.00 0.00 51 1017.1
20260901105503 52 0 0.0 0.0 0.00 0.00 0.00 52 1017.1
20260901105002 52 33 0.0 1.0 0.00 0.00 0.00 52 1017.0
20260901104002 52 0 0.0 0.0 0.00 0.00 0.00 52 1017.1
20260901103503 52 0 0.0 0.0 0.00 0.00 0.00 52 1017.1
20260901103003 52 0 0.0 0.0 0.00 0.00 0.00 52 1017.0
20260901102502 52 0 0.0 0.0 0.00 0.00 0.00 52 1017.0
20260901102002 52 0 0.0 0.0 0.00 0.00 0.00 52 1017.0
20260901101003 53 0 0.0 0.0 0.00 0.00 0.00 52 1017.1
20260901100503 53 0 0.0 0.0 0.00 0.00 0.00 52 1017.2
20260901100003 53 83 0.0 1.0 0.00 0.00 0.00 52 1017.1
20260901095502 53 0 0.0 0.0 0.00 0.00 0.00 52 1017.2
20260901095002 53 0 0.0 0.0 0.00 0.00 0.00 51 1017.2
20260901094503 53 0 0.0 0.0 0.00 0.00 0.00 51 1017.1
20260901094002 54 99 0.0 1.0 0.00 0.00 0.00 51 1017.2
20260901093503 54 98 0.0 1.0 0.00 0.00 0.00 50 1017.1
20260901093003 54 90 0.0 1.0 0.00 0.00 0.00 50 1017.2
20260901092503 55 90 0.0 1.0 0.00 0.00 0.00 49 1017.2
20260901092002 55 0 0.0 0.0 0.00 0.00 0.00 49 1017.3
20260901091503 55 0 0.0 0.0 0.00 0.00 0.00 49 1017.3
20260901091002 55 0 0.0 0.0 0.00 0.00 0.00 49 1017.2
20260901090502 55 0 0.0 0.0 0.00 0.00 0.00 49 1017.3
20260901090003 56 0 0.0 0.0 0.00 0.00 0.00 48 1017.3
20260901085503 56 0 0.0 0.0 0.00 0.00 0.00 48 1017.3
20260901085002 56 0 0.0 0.0 0.00 0.00 0.00 48 1017.4
20260901084502 56 0 0.0 0.0 0.00 0.00 0.00 48 1017.4
20260901084003 57 90 0.0 1.0 0.00 0.00 0.00 47 1017.4
20260901083502 57 0 0.0 0.0 0.00 0.00 0.00 46 1017.4
20260901083003 57 0 0.0 0.0 0.00 0.00 0.00 46 1017.4
20260901082503 57 0 0.0 0.0 0.00 0.00 0.00 46 1017.5
20260901082003 58 0 0.0 0.0 0.00 0.00 0.00 45 1017.4
20260901075503 59 82 0.0 1.0 0.00 0.00 0.00 44 1017.7
20260901075003 59 77 0.0 1.0 0.00 0.00 0.00 44 1017.7
20260901074503 59 51 0.0 1.0 0.00 0.00 0.00 43 1017.6
20260901073502 60 0 0.0 0.0 0.00 0.00 0.00 44 1017.6
20260901073003 60 50 0.0 1.0 0.00 0.00 0.00 44 1017.5
20260901072503 60 50 0.0 1.0 0.00 0.00 0.00 43 1017.5
20260901072003 60 0 0.0 0.0 0.00 0.00 0.00 43 1017.5
20260901071503 61 0 0.0 0.0 0.00 0.00 0.00 43 1017.5
20260901071003 61 0 0.0 0.0 0.00 0.00 0.00 42 1017.5
20260901070502 61 0 0.0 0.0 0.00 0.00 0.00 42 1017.5
20260901065503 62 0 0.0 0.0 0.00 0.00 0.00 41 1017.4
20260901065003 62 0 0.0 0.0 0.00 0.00 0.00 41 1017.4
20260901064503 63 0 0.0 0.0 0.00 0.00 0.00 40 1017.4
20260901064003 63 49 0.0 2.0 0.00 0.00 0.00 39 1017.4
20260901063503 64 49 0.0 1.0 0.00 0.00 0.00 39 1017.4
20260901063003 64 0 0.0 0.0 0.00 0.00 0.00 38 1017.4
20260901062503 64 0 0.0 0.0 0.00 0.00 0.00 38 1017.4
20260901062002 65 59 0.0 1.0 0.00 0.00 0.00 37 1017.3
20260901061503 65 0 0.0 0.0 0.00 0.00 0.00 36 1017.4
20260901061003 65 134 1.0 1.0 0.00 0.00 0.00 36 1017.2
20260901060503 65 126 1.0 3.0 0.00 0.00 0.00 36 1017.2
20260901060003 65 124 1.0 3.0 0.00 0.00 0.00 37 1017.3
20260901055503 65 129 0.0 3.0 0.00 0.00 0.00 37 1017.3
20260901055003 65 119 1.0 2.0 0.00 0.00 0.00 38 1017.3
20260901053503 65 75 1.0 2.0 0.00 0.00 0.00 38 1017.3